Weather History for KP58 - December, 2012

Change the Weather History Date:

Sunday, December 9, 2012

  Actual Average (KMBS) Record (KMBS)
Temperature  
Mean Temperature 34 °F 29 °F  
Max Temperature 37 °F 35 °F - ()
Min Temperature 32 °F 23 °F - ()
Degree Days  
Heating Degree Days 30    
Month to date heating degree days  
Since 1 July heating degree days  
Cooling Degree Days 0    
Month to date cooling degree days  
Year to date cooling degree days  
Moisture  
Dew Point 28 °F    
Average Humidity 78    
Maximum Humidity 100    
Minimum Humidity 65    
Precipitation  
Precipitation 0.10 in 0.07 in - ()
Month to date precipitation 0.61  
Year to date precipitation 30.29  
Snow  
Snow 0.00 in - - ()
Month to date snowfall  
Since 1 July snowfall  
Snow Depth -    
Sea Level Pressure  
Sea Level Pressure 30.05 in    
Wind  
Wind Speed 12 mph (East)    
Max Wind Speed 25 mph    
Max Gust Speed 31 mph    
T = Trace of Precipitation, MM = Missing Value Source: NWS Daily Summary

Daily Weather History Graph

Daily Weather History Graph

Search for Another Location

Airport or City:

Trip Planner

Search our weather history database for the weather conditions in past years. The results will help you decide how hot, cold, wet, or windy it might be!

Date:

Astronomy

Dec. 09, 2012 Rise Set
Actual Time 7:54 AM EST 4:52 PM EST
Civil Twilight 7:21 AM EST 5:25 PM EST
Nautical Twilight 6:45 AM EST 6:02 PM EST
Astronomical Twilight 6:10 AM EST 6:37 PM EST
Moon 3:19 AM EST (12/9) 2:04 PM EST (12/9)
Length of Visible Light 10h 04m
Length of Day
8h 58m
Waning Crescent, 19% of the Moon is Illuminated
Dec 9
Waning Crescent
Dec 13
New
Dec 20
First Quarter
Dec 28
Full
Jan 4
Last Quarter

Hourly Weather History & Observations

Time (EST) Temp. Windchill Dew Point Humidity Pressure Visibility Wind Dir Wind Speed Gust Speed Precip Events Conditions
12:51 AM 37.0 °F 34.5 °F 26.1 °F 65% 30.19 in - ENE 3.5 mph - N/A   Unknown
1:51 AM 34.0 °F 28.8 °F 26.1 °F 73% 30.21 in - SW 5.8 mph - N/A   Unknown
2:51 AM 35.1 °F - 26.1 °F 70% 30.23 in - Calm Calm - N/A   Unknown
3:51 AM 34.0 °F - 28.0 °F 79% 30.22 in - Calm Calm - N/A   Unknown
4:51 AM 36.0 °F 26.7 °F 28.9 °F 76% 30.22 in - East 15.0 mph - N/A   Unknown
5:51 AM 35.1 °F 24.5 °F 28.0 °F 76% 30.21 in - East 18.4 mph - N/A   Unknown
6:51 AM 35.1 °F 25.2 °F 27.0 °F 72% 30.24 in - East 16.1 mph - N/A   Unknown
7:51 AM 34.0 °F 23.0 °F 26.1 °F 73% 30.23 in - East 18.4 mph - N/A   Unknown
8:51 AM 34.0 °F 22.4 °F 26.1 °F 73% 30.21 in - East 20.7 mph - N/A   Unknown
9:51 AM 34.0 °F 22.1 °F 26.1 °F 73% 30.20 in - East 21.9 mph - N/A   Unknown
10:51 AM 33.1 °F 21.5 °F 24.1 °F 70% 30.22 in - East 19.6 mph 27.6 mph N/A   Unknown
11:51 AM 33.1 °F 22.2 °F 24.1 °F 70% 30.19 in - East 17.3 mph - N/A   Unknown
12:51 PM 33.1 °F 21.5 °F 24.1 °F 70% 30.13 in - ENE 19.6 mph - N/A   Unknown
1:51 PM 33.1 °F 20.9 °F 24.1 °F 70% 30.07 in - ENE 21.9 mph - N/A   Unknown
2:51 PM 33.1 °F 20.1 °F 25.0 °F 72% 30.02 in - ENE 25.3 mph 31.1 mph N/A   Unknown
3:51 PM 34.0 °F 21.8 °F 25.0 °F 70% 29.98 in - East 23.0 mph 29.9 mph N/A   Unknown
4:51 PM 34.0 °F 21.3 °F 25.0 °F 70% 29.94 in - East 25.3 mph - N/A   Unknown
5:51 PM 32.0 °F 18.6 °F 28.9 °F 88% 29.89 in - East 25.3 mph - 0.01 in   Unknown
6:51 PM 34.0 °F 23.4 °F 30.9 °F 89% 29.88 in - East 17.3 mph - 0.04 in   Unknown
7:51 PM 35.1 °F 25.2 °F 32.0 °F 89% 29.83 in - East 16.1 mph - 0.01 in   Unknown
8:51 PM 36.0 °F 26.3 °F 34.0 °F 93% 29.78 in - East 16.1 mph - 0.02 in   Unknown
9:51 PM 36.0 °F 27.1 °F 35.1 °F 97% 29.74 in - East 13.8 mph - 0.01 in   Unknown
10:51 PM 37.0 °F 28.9 °F 36.0 °F 96% 29.70 in - East 12.7 mph - 0.01 in   Unknown
11:51 PM 37.0 °F 34.5 °F 37.0 °F 100% 29.67 in - SE 3.5 mph - N/A   Unknown